Regional Weather Roundup
Issued by NWS

Home | Current Version | Previous Version | Graphics & Text | Print | Product List | Glossary On
Versions: 1 2 3 4 5 6 7 8 9 10 11 12 13 14 15 16 17 18 19 20 21 22 23 24 25 26 27 28 29 30 31 32 33 34 35 36 37 38 39 40 41 42 43 44 45 46 47 48 49 50
000
ASUS45 KBOU 231107
RWRCO

WEATHER ROUNDUP FOR COLORADO
NATIONAL WEATHER SERVICE DENVER/BOULDER CO
500 AM MDT WED JUL 23 2014

NOTE: "FAIR" INDICATES FEW OR NO CLOUDS BELOW 12000 FEET WITH NO
SIGNIFICANT WEATHER AND/OR OBSTRUCTIONS TO VISIBILITY.

COZ001>005-013-030-031-231200-
...NORTHWEST COLORADO...

CITY           SKY/WX    TMP DP  RH WIND       PRES   REMARKS
CRAIG          CLEAR     45  37  73 NE3       30.35R
HAYDEN         CLEAR     57  34  41 SE12      30.37R
MEEKER         CLEAR     51  34  52 CALM      30.37R
MOUNT WERNER   NOT AVBL
STEAMBOAT SPGS CLEAR     51  37  58 CALM      30.41S
WALDEN         CLEAR     43  36  75 E8        30.52S
$$

COZ006>008-011-231200-
...WEST CENTRAL VALLEYS...

CITY           SKY/WX    TMP DP  RH WIND       PRES   REMARKS
GRAND JUNCTION CLEAR     75  30  19 E15       30.22R
MONTROSE       CLEAR     67  42  40 S6        30.35R
EAGLE          CLEAR     55  39  54 E6        30.45S
RIFLE          CLEAR     63  33  32 SW5       30.31R
DELTA          CLEAR     67  38  33 N8        30.29F
NUCLA          NOT AVBL
$$

COZ017>023-064>068-231200-
...SOUTHWEST COLORADO...

CITY           SKY/WX    TMP DP  RH WIND       PRES   REMARKS
DURANGO        CLOUDY    63  54  72 CALM      30.44F
CORTEZ         CLEAR     76  43  30 E7        30.35S
PAGOSA SPRINGS CLOUDY    62  44  53 CALM      30.54F
TELLURIDE      MOCLDY    63  39  42 CALM      30.62S
WOLF CREEK PAS NOT AVBL
$$

COZ009-010-012-014-032>034-037-058>063-231200-
...CENTRAL COLORADO...

CITY           SKY/WX    TMP DP  RH WIND       PRES   REMARKS
ASPEN          CLEAR     66  40  38 SE10      30.49S
BUENA VISTA    CLEAR     53  43  70 CALM      30.58S
COPPER MTN     CLEAR     59  36  41 S26       30.85S
BERTHOUD PASS  FAIR      46  34  61 SW13      30.91F
COTTONWOOD PAS CLEAR     63  36  36 CALM      30.70F
GUNNISON       PTCLDY    55  39  54 CALM      30.57S
KREMMLING      CLEAR     50  39  66 E3        30.51S
LEADVILLE      CLEAR     46  37  71 NE6       30.70F
MONARCH PASS   PTCLDY    50  37  62 SW16      30.97F
SALIDA         CLEAR    N/A N/A N/A W5        30.62S
SUNLIGHT       CLEAR     57  36  44 SE3       30.76R
WILKERSON PASS PTCLDY    54  34  47 SW9G20    30.83S
$$

COZ069>075-231200-
...SAN LUIS VALLEY/SANGRE DE CRISTO MOUNTAINS...

CITY           SKY/WX    TMP DP  RH WIND       PRES   REMARKS
ALAMOSA        PTCLDY    52  44  74 SW3       30.52S
LA VETA PASS   CLEAR     57  43  58 CALM      30.73S
SAGUACHE       PTCLDY    55  43  62 CALM      30.56F
$$

COZ035-036-038>040-231200-
...NORTHERN COLORADO FRONT RANGE...

CITY           SKY/WX    TMP DP  RH WIND       PRES   REMARKS
DENVER INTL AP PTCLDY    68  51  54 W12       30.32R
DMNS CITY PARK   N/A     64  52  65 E1        30.33R
AURORA         PTCLDY    66  44  45 CALM      30.36R
FRONT RANGE AP NOT AVBL
ERIE MUNI ARPT CLEAR     63  59  86 CALM      30.32R
BOULDER MUN AP CLEAR     64  48  55 SE3       30.32R
CENTENNIAL     PTCLDY    71  41  33 SW8       30.36S
BROOMFIELD     CLEAR     68  57  68 CALM      30.35R
FORT COLLINS   PTCLDY    66  61  82 NE9       30.33R
LONGMONT       CLEAR     69  62  78 N7        30.33R
$$

COZ041-046-047-076>085-087-088-231200-
...PIKES PEAK/PALMER DIVIDE AND SOUTHERN FOOTHILLS...

CITY           SKY/WX    TMP DP  RH WIND       PRES   REMARKS
COLO. SPRINGS  PTCLDY    64  51  62 N8        30.40S
A. F. ACADEMY  CLEAR     57  47  69 N8        30.42F
ELLICOTT       CLEAR     65  53  65 E9        30.38S
FALCON         CLEAR     61  48  63 W5        30.45S
FORT CARSON    CLEAR     65  48  54 N5        30.36S
LIMON          CLEAR     60  55  83 N3        30.35R
MONUMENT HILL  CLEAR     59  45  58 SW8       30.45S
TRINIDAD       CLEAR     66  51  58 W16       30.37F
$$

COZ042>045-048>051-090-091-231200-
...NORTHEAST COLORADO...

CITY           SKY/WX    TMP DP  RH WIND       PRES   REMARKS
GREELEY ARPT   CLEAR     64  55  72 NE7       30.31R
AKRON          CLOUDY    66  64  93 E18G26    30.31R
BURLINGTON     FOG       68  67  96 E13       30.30R VSB 1/4
WRAY             N/A     71  67  89 E16G25    30.29S
STERLING       MOCLDY    72  68  88 E7        30.28S
HOLYOKE        CLOUDY    70  64  83 SE14      30.30S
FORT MORGAN    PTCLDY    64  62  91 E10       30.30S
$$

COZ086-089-092>099-231200-
...SOUTHEAST COLORADO...

CITY           SKY/WX    TMP DP  RH WIND       PRES   REMARKS
PUEBLO         CLEAR     67  51  56 CALM      30.28S
LA JUNTA       CLEAR     71  61  70 S3        30.24F
LAMAR          CLEAR     66  61  84 CALM      30.21R
SPRINGFIELD      N/A     66  62  87 SW6       30.28R
$$


USA.gov is the U.S. government's official web portal to all federal, state and local government web resources and services.